Savannah, GA

12:57 AM EDT on September 28, 2016 (GMT -0400)
Hunter Army Air Field

Weather History for KSVN - January, 2013

Change the Weather History Date:

Friday, January 18, 2013

  Actual Average Record
Temperature  
Mean Temperature 50 °F -  
Max Temperature 57 °F 59 °F 71 °F (1999)
Min Temperature 42 °F 37 °F 23 °F (2003)
Degree Days  
Heating Degree Days 16    
Moisture  
Dew Point 30 °F    
Average Humidity 53    
Maximum Humidity 78    
Minimum Humidity 21    
Precipitation  
Precipitation 0.00 in - - ()
Sea Level Pressure  
Sea Level Pressure 30.35 in    
Wind  
Wind Speed 11 mph (NNE)    
Max Wind Speed 17 mph    
Max Gust Speed 24 mph    
Visibility 10 miles    
Events      
Averages and records for this station are not official NWS values.
T = Trace of Precipitation, MM = Missing Value Source: NWS Daily Summary

Daily Weather History Graph

Daily Weather History Graph

Search for Another Location

Airport or City:

Trip Planner

Search our weather history database for the weather conditions in past years. The results will help you decide how hot, cold, wet, or windy it might be!

Date:

Astronomy

Jan. 18, 2013 Rise Set
Actual Time 7:24 AM EST 5:45 PM EST
Civil Twilight 6:58 AM EST 6:12 PM EST
Nautical Twilight 6:28 AM EST 6:42 PM EST
Astronomical Twilight 5:59 AM EST 7:11 PM EST
Moon 11:31 AM EST (1/18) 12:06 AM EST (1/18)
Length of Visible Light 11h 13m
Length of Day
10h 21m
Waxing Crescent, 47% of the Moon is Illuminated
Jan 18
Waxing Crescent
Jan 18
First Quarter
Jan 26
Full
Feb 3
Last Quarter
Feb 10
New

Hourly Weather History & Observations

Time (EST) Temp. Windchill Dew Point Humidity Pressure Visibility Wind Dir Wind Speed Gust Speed Precip Events Conditions
12:08 AM 42.8 °F 37.0 °F 33.8 °F 70% 30.11 in 10.0 mi WNW 10.4 mph - N/A   Overcast
12:55 AM 43.3 °F 37.7 °F 35.1 °F 73% 30.13 in 10.0 mi WNW 10.4 mph - N/A   Overcast
1:44 AM 44.6 °F 37.2 °F 35.6 °F 71% 30.15 in 10.0 mi NNW 17.3 mph 24.2 mph N/A   Scattered Clouds
1:55 AM 44.1 °F 37.7 °F 36.5 °F 75% 30.15 in 10.0 mi NNW 12.7 mph - N/A   Partly Cloudy
2:55 AM 44.4 °F 37.9 °F 37.9 °F 78% 30.18 in 10.0 mi North 13.8 mph - N/A   Clear
3:55 AM 45.7 °F 39.1 °F 38.8 °F 77% 30.22 in 10.0 mi North 15.0 mph 20.7 mph N/A   Clear
4:55 AM 45.0 °F 39.7 °F 37.2 °F 74% 30.25 in 10.0 mi NNE 10.4 mph 19.6 mph N/A   Clear
5:55 AM 44.1 °F 37.1 °F 35.4 °F 72% 30.28 in 10.0 mi North 15.0 mph 21.9 mph N/A   Clear
6:55 AM 43.0 °F 37.2 °F 34.9 °F 73% 30.32 in 10.0 mi North 10.4 mph 19.6 mph N/A   Clear
7:55 AM 42.6 °F 35.9 °F 35.1 °F 75% 30.35 in 10.0 mi North 12.7 mph - N/A   Clear
8:55 AM 44.2 °F 37.6 °F 35.4 °F 71% 30.39 in 10.0 mi North 13.8 mph 18.4 mph N/A   Clear
9:55 AM 47.3 °F - 33.4 °F 59% 30.43 in 10.0 mi North 13.8 mph 20.7 mph N/A   Clear
10:55 AM 50.4 °F - 31.6 °F 49% 30.44 in 10.0 mi NNE 12.7 mph 20.7 mph N/A   Clear
11:55 AM 54.0 °F - 27.3 °F 36% 30.43 in 10.0 mi NNE 12.7 mph - N/A   Clear
12:55 PM 55.8 °F - 24.6 °F 30% 30.40 in 10.0 mi NE 13.8 mph 18.4 mph N/A   Clear
1:55 PM 56.8 °F - 24.8 °F 29% 30.39 in 10.0 mi NNE 13.8 mph 23.0 mph N/A   Clear
2:55 PM 57.9 °F - 22.8 °F 26% 30.40 in 10.0 mi NNE 11.5 mph 18.4 mph N/A   Clear
3:55 PM 57.6 °F - 17.2 °F 21% 30.41 in 10.0 mi ENE 8.1 mph - N/A   Clear
4:55 PM 56.5 °F - 19.8 °F 24% 30.42 in 10.0 mi NNE 10.4 mph - N/A   Clear
5:55 PM 52.2 °F - 20.1 °F 28% 30.43 in 10.0 mi ENE 4.6 mph - N/A   Clear
6:55 PM 49.6 °F - 22.3 °F 34% 30.45 in 10.0 mi ENE 4.6 mph - N/A   Clear
7:55 PM 48.7 °F - 24.3 °F 38% 30.47 in 10.0 mi NE 3.5 mph - N/A   Clear
8:55 PM 46.8 °F - 26.2 °F 45% 30.47 in 10.0 mi NNE 3.5 mph - N/A   Clear
9:55 PM 45.5 °F 43.2 °F 26.8 °F 48% 30.47 in 10.0 mi NNE 4.6 mph - N/A   Clear
10:55 PM 44.4 °F 42.9 °F 27.9 °F 52% 30.46 in 10.0 mi NNE 3.5 mph - N/A   Scattered Clouds
11:55 PM 45.3 °F 42.3 °F 28.4 °F 52% 30.44 in 10.0 mi NNE 5.8 mph - N/A   Mostly Cloudy